Simultaneous Nadir Overpasses (SNOs) Predictions

Prediction of SNOs near US between AQUA and NPP Satellite Orbit:

Table of predicted SNOs near US for the next 10.0 days since TLE Epoch: 10/9/2015
Index Date (AQUA) Time (AQUA) AQUA Lat,Lon Date (NPP) Time (NPP) NPP Lat,Lon Distance(km) Time Diff (sec)
1 10/10/2015 06:56:07 20.00, -77.17 10/10/2015 06:47:47 18.66, -76.98 151.08 500
2 10/10/2015 08:32:50 27.84,-100.00 10/10/2015 08:26:40 27.85,-100.03 3.64 370
3 10/10/2015 10:09:12 36.91,-122.25 10/10/2015 10:05:33 37.01,-122.78 48.36 219
4 10/13/2015 07:18:40 49.91, -76.00 10/13/2015 07:23:05 50.35, -78.19 163.62 265
5 10/13/2015 08:57:33 49.91,-100.72 10/13/2015 09:04:33 50.45,-103.52 208.12 420
6 10/15/2015 18:16:48 49.95, -80.17 10/15/2015 18:13:20 49.66, -81.65 111.50 208
7 10/15/2015 19:55:41
